Time,TemperatureF,DewpointF,PressureIn,WindDirection,WindDirectionDegrees,WindSpeedMPH,WindSpeedGustMPH,Humidity,HourlyPrecipIn,Conditions,Clouds,dailyrainin,SoftwareType,DateUTC
2013-02-26 07:22:00,31.0,22.0,30.09,ENE,76,0.0,0.0,68,0.00,,,0.00,,2013-02-26 12:22:00,
2013-02-26 07:32:00,31.0,22.0,30.09,ENE,76,0.0,0.0,68,0.00,,,0.00,,2013-02-26 12:32:00,
2013-02-26 07:42:00,31.0,22.0,30.09,ENE,76,0.0,0.0,68,0.00,,,0.00,,2013-02-26 12:42:00,
2013-02-26 07:53:00,31.0,22.0,30.09,ENE,76,0.0,0.0,68,0.00,,,0.00,,2013-02-26 12:53:00,
2013-02-26 08:02:00,31.0,22.0,30.09,ENE,76,0.0,0.0,68,0.00,,,0.00,,2013-02-26 13:02:00,
2013-02-26 17:01:00,39.0,37.0,29.78,ENE,62,4.0,-999.0,92,-99.99,,,-99.99,,2013-02-26 22:01:00,
2013-02-26 17:11:00,39.0,37.0,29.76,East,84,3.0,3.0,92,-99.99,,,-99.99,,2013-02-26 22:11:00,
2013-02-26 17:21:00,39.0,37.0,29.76,East,84,3.0,3.0,92,-99.99,,,-99.99,,2013-02-26 22:21:00,
2013-02-26 17:32:00,39.0,37.0,29.75,ENE,59,2.0,2.0,92,-99.99,,,-99.99,,2013-02-26 22:32:00,
2013-02-26 17:42:00,39.0,37.0,29.75,ENE,59,2.0,2.0,92,-99.99,,,-99.99,,2013-02-26 22:42:00,
2013-02-26 17:52:00,40.0,38.0,29.73,East,92,5.0,5.0,92,-99.99,,,-99.99,,2013-02-26 22:52:00,
2013-02-26 18:01:00,40.0,38.0,29.73,ENE,66,11.0,11.0,92,-99.99,,,-99.99,,2013-02-26 23:01:00,
2013-02-26 18:11:00,40.0,38.0,29.73,ENE,66,11.0,11.0,92,-99.99,,,-99.99,,2013-02-26 23:11:00,
2013-02-26 18:21:00,40.0,38.0,29.72,ENE,66,3.0,3.0,92,0.06,,,-99.99,,2013-02-26 23:21:00,
2013-02-26 18:32:00,40.0,38.0,29.71,East,79,4.0,4.0,92,0.10,,,-99.99,,2013-02-26 23:32:00,
2013-02-26 18:42:00,40.0,38.0,29.71,East,79,4.0,4.0,92,0.10,,,-99.99,,2013-02-26 23:42:00,
2013-02-26 18:52:00,40.0,38.0,29.70,ESE,106,3.0,3.0,93,0.14,,,-99.99,,2013-02-26 23:52:00,
2013-02-26 19:01:00,40.0,38.0,29.70,ENE,65,2.0,2.0,93,0.15,,,-99.99,,2013-02-27 00:01:00,
2013-02-26 19:11:00,40.0,38.0,29.70,ENE,65,2.0,2.0,93,0.15,,,-99.99,,2013-02-27 00:11:00,
2013-02-26 19:22:00,40.0,38.0,29.69,ENE,66,2.0,2.0,93,0.16,,,-99.99,,2013-02-27 00:22:00,
2013-02-26 19:32:00,40.0,38.0,29.69,NE,42,4.0,4.0,93,0.17,,,-99.99,,2013-02-27 00:32:00,
2013-02-26 19:42:00,40.0,38.0,29.69,NE,42,4.0,4.0,93,0.17,,,-99.99,,2013-02-27 00:42:00,
2013-02-26 19:52:00,40.0,38.0,29.68,East,96,3.0,3.0,93,0.16,,,-99.99,,2013-02-27 00:52:00,
2013-02-26 20:01:00,40.0,38.0,29.69,East,90,0.0,0.0,93,0.16,,,-99.99,,2013-02-27 01:01:00,
2013-02-26 20:11:00,40.0,38.0,29.69,East,90,0.0,0.0,93,0.16,,,-99.99,,2013-02-27 01:11:00,
2013-02-26 20:22:00,40.0,38.0,29.70,East,90,0.0,0.0,93,0.17,,,-99.99,,2013-02-27 01:22:00,
2013-02-26 20:32:00,40.0,38.0,29.71,East,90,0.0,0.0,93,0.18,,,-99.99,,2013-02-27 01:32:00,
2013-02-26 20:42:00,40.0,38.0,29.71,East,90,0.0,0.0,93,0.18,,,-99.99,,2013-02-27 01:42:00,
2013-02-26 20:52:00,40.0,38.0,29.72,East,90,0.0,0.0,93,0.19,,,-99.99,,2013-02-27 01:52:00,
2013-02-26 21:01:00,40.0,38.0,29.72,East,90,2.0,2.0,93,0.19,,,-99.99,,2013-02-27 02:01:00,
2013-02-26 21:15:00,40.0,38.0,29.72,East,90,2.0,2.0,93,0.19,,,-99.99,,2013-02-27 02:15:00,
2013-02-26 21:24:00,40.0,38.0,29.70,East,89,2.0,2.0,93,0.18,,,-99.99,,2013-02-27 02:24:00,
2013-02-26 21:32:00,40.0,38.0,29.68,ENE,57,4.0,4.0,93,0.16,,,-99.99,,2013-02-27 02:32:00,
2013-02-26 21:42:00,40.0,38.0,29.68,ENE,57,4.0,4.0,93,0.16,,,-99.99,,2013-02-27 02:42:00,
2013-02-26 21:52:00,39.0,37.0,29.67,ENE,61,2.0,2.0,93,0.12,,,-99.99,,2013-02-27 02:52:00,
2013-02-26 22:02:00,39.0,37.0,29.65,ENE,59,3.0,3.0,94,0.09,,,-99.99,,2013-02-27 03:02:00,
2013-02-26 22:11:00,39.0,37.0,29.65,ENE,59,3.0,3.0,94,0.09,,,-99.99,,2013-02-27 03:11:00,
2013-02-26 22:22:00,40.0,38.0,29.64,NE,52,5.0,5.0,94,0.06,,,-99.99,,2013-02-27 03:22:00,
2013-02-26 22:32:00,40.0,38.0,29.63,North,355,2.0,2.0,94,0.02,,,-99.99,,2013-02-27 03:32:00,
2013-02-26 22:42:00,40.0,38.0,29.63,North,355,2.0,2.0,94,0.02,,,-99.99,,2013-02-27 03:42:00,
2013-02-26 22:52:00,40.0,38.0,29.63,NE,38,1.0,1.0,94,0.02,,,-99.99,,2013-02-27 03:52:00,
2013-02-26 23:01:00,40.0,38.0,29.62,ENE,63,4.0,4.0,94,0.02,,,-99.99,,2013-02-27 04:01:00,
2013-02-26 23:11:00,40.0,38.0,29.62,ENE,63,4.0,4.0,94,0.02,,,-99.99,,2013-02-27 04:11:00,
2013-02-26 23:22:00,40.0,38.0,29.60,ENE,59,0.0,0.0,94,0.01,,,-99.99,,2013-02-27 04:22:00,
2013-02-26 23:32:00,40.0,38.0,29.59,NNE,30,2.0,2.0,94,0.01,,,-99.99,,2013-02-27 04:32:00,
2013-02-26 23:42:00,40.0,38.0,29.59,NNE,30,2.0,2.0,94,0.01,,,-99.99,,2013-02-27 04:42:00,
2013-02-26 23:52:00,39.0,37.0,29.59,NW,325,4.0,4.0,94,0.01,,,-99.99,,2013-02-27 04:52:00,